2018-111Y (43898 NORAD) Tracking and Keplerian Element Data

This shows tracking and keplerian element data for the satellite.

Feedback or suggestion? Click here.




ElementValue
Catalog43898
Name2018-111Y
Epoch Orbit458
Epoch Day26.1631947
Epoch Year2019
RAAN295.2465
Inclination97.2995
Eccentricity0.002405
Argument of Perigee139.9922
Mean Anonmoly220.3093
Mean Motion15.23551647
Decay Rate5.98E-06
L11 43898U 18111Y 19026.16319470 .00000598 00000-0 27763-4 0 9994
L22 43898 97.2995 295.2465 0024050 139.9922 220.3093 15.23551647 4589

Live tracking and technical data element details for 2018-111Y (NORAD 43898). 2018-111Y can be tracked NOW for your location showing map with azimuth and elevation plus other details from your city location.

Track the satellite on the map from your city or location and see movement details for azimuth, elevation, latitude, longitude, range, height, and movement on the map or in text.







IsCatalogInMostPopularTable: catalog: 43898, numindb: 110
Update: records affected: 1



GetName: 43898 2018-111Y

Hit Count: updated at: Sat, 20 Jul 2019 22:01:09 GMT